Location: Mauries
(43.6188°N, 0.3322°W)
Time: 04:26:53
(UTC+00:00)

Cosmos 44 - Pass Details

Date: 14 January 2026
Orbit: 570 x 780 km, 65.1° (Epoch: 15 February)

Event Time Altitude Azimuth Distance (km) Brightness Sun altitude
Exits shadow 06:44:55 - 324° (NW) 2,690 5.8 -8.6°
Reaches altitude 10° 06:45:54 10° 324° (NW) 2,316 5.5 -8.4°
Maximum altitude 06:51:15 80° 239° (WSW) 796 3.6 -7.5°
Drops below altitude 10° 06:56:37 10° 153° (SSE) 2,320 6.8 -6.6°
Sets 06:59:01 0° 152° (SSE) 3,234 7.7 -6.2°
